Other Public Products
Issued by NWS Grand Forks, ND

Home | Current Version | Previous Version | Graphics & Text | Print | Product List | Glossary On
Versions: 1 2 3 4 5 6 7 8 9 10 11 12 13 14 15 16 17 18 19 20 21 22 23 24 25 26 27 28 29 30 31 32 33 34 35 36 37 38 39 40 41 42 43 44 45 46 47 48 49 50
000
FPUS83 KFGF 221031
OPUFGF
PRAIRIE TO PINES WEATHER ROUNDUP
NATIONAL WEATHER SERVICE EASTERN NORTH DAKOTA/GRAND FORKS ND
400 AM CST THU FEB 22 2018

 **SATELLITE DATA USED TO AUGMENT SKY COVER AT AUTOMATED STATIONS**
 *****  WEATHER ACROSS EASTERN NORTH DAKOTA  *****

CITY           SKY/WX    TMP DP  RH WIND       PRES   REMARKS
GRAND FORKS    FAIR      -3  -8  79 SE9       30.47F WCI -19
GRND FORKS AFB CLEAR     -7 -12  79 S5        30.45F WCI -19
GRND FORKS NWS   N/A     -2  -5  86 SE9       30.44F WCI -17
BUXTON           N/A     -5  -5  99 SE6         N/A  WCI -17
DEVILS LAKE    FAIR      -6  -9  86 SE6       30.36F WCI -19
FARGO          FAIR       5  -1  76 SE10      30.47F WCI -10
WAHPETON ARPT  FAIR       5  -4  66 SE12      30.49F WCI -11
$$

 *****  WEATHER ACROSS CENTRAL AND WESTERN NORTH DAKOTA  *****

CITY           SKY/WX    TMP DP  RH WIND       PRES   REMARKS
JAMESTOWN      FAIR      -4  -7  87 S6        30.35F WCI -16
BISMARCK       FAIR      -7 -11  83 E6        30.32F WCI -20
MINOT          FAIR      -1  -8  72 S8        30.26F WCI -15
MINOT AFB      FAIR      -6 -12  77 SE5       30.25F WCI -18
GARRISON         N/A     -7 -11  83 E3        30.27F
WILLISTON      FAIR      -8 -13  78 SW3       30.23F
DICKINSON      FAIR      -5 -13  68 CALM      30.16F
HETTINGER      FAIR     -13 -19  75 CALM      30.19F
$$

 *****  OTHER OBSERVATIONS NORTHEAST NORTH DAKOTA  *****

CITY           SKY/WX    TMP DP  RH WIND       PRES   REMARKS
WALHALLA       FAIR      -4  -4 100 SE8       30.41F WCI -19
LANGDON        FAIR       0  -6  78 S16       30.33F WCI -21
CAVALIER         N/A     -2  -6  84 S7        30.43F WCI -16
GRAFTON        FAIR      -6  -9  84 S10       30.48F WCI -23
CANDO          FAIR     -11 -15  84 SE5       30.36F WCI -23
FORT TOTTEN    NOT AVBL
ROLLA          FAIR      -4  -9  77 S15       30.28F WCI -25
RUGBY          FAIR      -6 -11  77 SE9       30.31F WCI -22
 ***** THE ABOVE OBSERVATIONS ARE NON NWS ARE NOT QUALITY
        CONTROLLED AND MAY MIS-REPORT RAIN FOR SNOW...
$$

 *****  OTHER OBSERVATIONS SOUTHEAST NORTH DAKOTA *****

CITY           SKY/WX    TMP DP  RH WIND       PRES   REMARKS
COOPERSTOWN    FAIR       0  -6  78 S10       30.38F WCI -17
VALLEY CITY    FAIR       1  -4  78 S9        30.40F WCI -14
OAKES            N/A     -4 -11  71 SE12      30.40F WCI -22
GWINNER          N/A     -4  -9  77 E10       30.42F WCI -21
BUFFALO          N/A      1  -6  71 W9          N/A  WCI -14
WYNDMERE       NOT AVBL
 ***** THE ABOVE OBSERVATIONS ARE NON NWS ARE NOT QUALITY
       CONTROLLED AND MAY MIS-REPORT RAIN FOR SNOW...
$$

  *****  WEATHER ACROSS NORTHERN MINNESOTA  *****

CITY           SKY/WX    TMP DP  RH WIND       PRES   REMARKS
FLAG ISLAND    FAIR      -6  -9  84 SE8       30.48S WCI -21
WARROAD        FAIR      -6  -9  84 S3        30.47F
ROSEAU         FAIR      -6 -11  77 S9        30.47F WCI -22
HALLOCK        FAIR      -4  -9  77 S12       30.46F WCI -22
THF RVR FALLS  FAIR      -2  -6  83 SE6       30.49F WCI -14
HALSTAD        NOT AVBL
FOSSTON        FAIR      -4  -9  77 SE3       30.47F
BAUDETTE       FAIR     -10 -13  86 SE7       30.48F WCI -25
WASKISH        FAIR     -13 -18  77 CALM      30.50S
CROOKSTON      FAIR      -6  -9  84 S9        30.49F WCI -22
$$
  *****  WEATHER ACROSS CENTRAL AND WEST MINNESOTA  *****

CITY           SKY/WX    TMP DP  RH WIND       PRES   REMARKS
BEMIDJI        FAIR      -2  -6  82 CALM      30.48F
PARK RAPIDS    FAIR     -14 -19  79 CALM      30.49F
WADENA         FAIR      -8 -11  84 CALM      30.51R
DETROIT LAKES  FAIR       0  -4  85 SE9       30.48F WCI -16
MOORHEAD       FAIR       3  -4  72 SE12      30.47F WCI -13
FERGUS FALLS   FAIR       7   0  72 SE13      30.51F WCI  -9
ELBOW LAKE     FAIR       4  -2  77 SE7       30.51F WCI  -8
MORRIS MN      FAIR       1  -4  78 SE9       30.52R WCI -14
STAPLES        FAIR      -9 -15  77 CALM      30.52S
WHEATON        FAIR       0  -6  78 SE13      30.51F WCI -18
$$
  *****  WEATHER ELSEWHERE ACROSS MINNESOTA  *****

CITY           SKY/WX    TMP DP  RH WIND       PRES   REMARKS
DULUTH         FAIR      -2  -6  83 W3        30.54F
INTRNTL FALLS  FAIR     -17 -18  95 SE3       30.53F
ELY            FAIR     -11 -15  84 CALM      30.54S
CLOQUET        FAIR      -8 -13  77 CALM      30.55S
BRAINERD       FAIR      -8 -14  74 CALM      30.54F
HIBBING        FAIR     -16 -22  74 CALM      30.54S
ALEXANDRIA     FAIR       1  -3  83 SE5       30.51F WCI  -9
SAINT CLOUD    FAIR      -7 -10  87 E3        30.57F
MINNEAPOLIS    MOCLDY     8   3  80 CALM      30.61R
$$

  *****  WEATHER ACROSS SOUTH DAKOTA  *****

CITY           SKY/WX    TMP DP  RH WIND       PRES   REMARKS
SIOUX FALLS    CLOUDY    14   9  80 NE5       30.46F WCI   6
BROOKINGS      FAIR       5   1  83 SE10      30.45F WCI -10
WATERTOWN      FAIR       7   2  80 SE8       30.41F WCI  -6
HURON          CLOUDY    10   4  76 SE12      30.42F WCI  -5
SISSETON         N/A      1  -5  75 S15       30.46F WCI -18
ABERDEEN       FAIR       8   2  76 S7        30.41F WCI  -3
MITCHELL       CLOUDY    12   6  77 SE10      30.45F WCI  -1
PIERRE         FAIR       3   0  87 SE10      30.32F WCI -12
MOBRIDGE       FAIR      -5 -10  79 MISG      30.26F
RAPID CITY     FAIR       4  -2  76 E3        30.13F
$$

  *****  SOME WEATHER IN NEARBY STATES *****

CITY           SKY/WX    TMP DP  RH WIND       PRES   REMARKS
GLASGOW MT     FAIR     -15 -20  78 SE5       30.15F WCI -27
GREAT FALLS MT FAIR       3  -5  69 N7        30.04R WCI  -9
CHEYENNE WY    FAIR       7   4  87 W6        29.97F WCI  -3
SCOTTSBLUFF NE FAIR       7   3  84 E10       30.13F WCI  -8
OMAHA NE       LGT SNOW  24  18  77 CALM      30.48F
DES MOINES IA  FLURRIES  25  17  72 NE8       30.48F WCI  16
DAVENPORT IA   CLOUDY    27  18  69 NE14      30.52F WCI  16
CHICAGO IL     CLOUDY    31  25  78 NE10      30.53F WCI  22
EAU CLAIRE WI  FAIR       2  -1  88 NE5       30.60S WCI  -8
LA CROSSE WI   CLOUDY    20  15  81 CALM      30.61S
$$

  *****  SOME NATIONAL WEATHER *****

CITY           SKY/WX    TMP DP  RH WIND       PRES   REMARKS
LA GUARDIA NY  CLOUDY    49  36  61 N9        30.53R
RALEIGH NC     MOCLDY    65  64  97 SW13      30.42S
ATLANTA GA     MOCLDY    64  63  96 SE5       30.39R
NEW ORLEANS LA FAIR      73  72  96 SE7       30.24S
OKLAHOMA CITY  CLOUDY    27  26  96 NE9       30.29F WCI  18
ALBUQUERQUE NM MOCLDY    34  23  64 NW7       30.00F
SALT LAKE CITY MOCLDY    19  11  70 SE7       30.02F WCI  10
LOS ANGELES CA FAIR      47  32  56 E6        30.19R
BOISE ID       LGT SNOW  28  26  92 SE3       29.96F FOG
SEATTLE WA     CLOUDY    30  28  92 N13       30.18R WCI  20
$$

*** WEATHER ACROSS MANITOBA...SASKATCHEWAN AND ONTARIO ***
                ***ONTARIO***

CITY           SKY/WX    TMP DP  RH WIND       PRES   REMARKS
GERALDTON      CLEAR    -15 -18  84 CALM      30.51S
THUNDER BAY    CLEAR     -9 -15  77 W5        30.60F WCI -21
SIOUX LOOKOUT  CLEAR     -8 -11  84 S2        30.49S
TORONTO        CLOUDY    27  19  74 N8        30.63F WCI  18
BIG TROUT LK   CLEAR    -13 -20  70 SW10      30.35F WCI -32
PICKLE LAKE    NOT AVBL
DRYDEN         CLEAR     -6  -9  84 S9        30.48S WCI -22
KENORA         CLEAR     -4  -9  77 S9        30.46F WCI -20
$$
                *** MANITOBA***

CITY           SKY/WX    TMP DP  RH WIND       PRES   REMARKS
BRANDON        CLEAR    -11 -17  77 E2        30.30F
DAUPHIN        CLEAR      5  -4  66 SW13      30.27F WCI -12
ISLAND LAKE    CLEAR    -13 -20  70 S7        30.26F WCI -29
PILOT MOUND      N/A     -6  -9  84 S10         N/A  WCI -23
THE PAS        CLEAR     -8 -15  71 S9        30.08F WCI -25
THOMPSON       PTCLDY   -13 -20  70 S6        30.01F WCI -27
WINNIPEG       CLEAR      0  -6  78 S12       30.42F WCI -18
LYNN LAKE      PTCLDY    -4  -9  77 SW15G23   29.76F WCI -25
CHURCHILL      FLURRIES -11 -18  70 S17       29.89F WCI -35
$$
                ***SASKATCHEWAN***

CITY           SKY/WX    TMP DP  RH WIND       PRES   REMARKS
ESTEVAN        PTCLDY   -17 -22  76 S5        30.20F WCI -29
KINDERSLEY     CRYSTALS -17 -22  76 SW7       30.07R FOG     WCI -33
LLOYDMINSTER   CLEAR      0  -6  78 W16       30.00S WCI -21
PRINCE ALBERT  CLEAR     -4  -9  77 SW7       30.09F WCI -18
REGINA         CLEAR    -15 -20  76 SE8       30.17S WCI -32
YORKTON        MOCLDY    -6  -9  84 S10       30.17F WCI -23
N. BATTLEFORD  CLEAR     -4  -9  77 VRB2      30.08F
LA RONGE       CLEAR      1  -6  71 SW7       29.94S WC



USA.gov is the U.S. government's official web portal to all federal, state and local government web resources and services.